Simultaneous Nadir Overpasses (SNOs) Predictions

Prediction of SNOs between GOES-16 and NOAA-19 Satellite Orbit:

Table of predicted SNOs for the next 14.0 days since TLE Epoch: 4/10/2020
Index Date Time (GOES-16) GOES-16 Lat,Lon NOAA-19 Lat,Lon Distance(km) Time Diff (sec)
1 04/10/2020 22:34:31 -0.01, -75.20 0.64, -72.48 310.60 80
2 04/13/2020 10:55:33 0.00, -75.20 0.52, -77.46 257.45 80
3 04/14/2020 10:41:13 0.00, -75.20 -0.13, -74.60 67.53 80
4 04/15/2020 10:29:32 0.00, -75.19 -0.77, -71.75 392.73 80
5 04/17/2020 22:50:34 -0.01, -75.18 -0.34, -76.73 176.14 80
6 04/18/2020 22:41:34 -0.01, -75.18 0.30, -73.87 149.82 80
7 04/19/2020 22:29:53 -0.01, -75.19 0.94, -71.02 475.93 80
8 04/21/2020 11:02:36 0.01, -75.22 0.87, -78.84 413.77 80
9 04/22/2020 10:50:56 0.01, -75.23 0.16, -76.00 87.35 80
10 04/23/2020 10:36:36 0.01, -75.24 -0.49, -73.15 239.24 80




NCC Satellite Simultaneous Nadir Overpasses (SNOs) Prediction Service
